www.pogodaiklimat.ru

Погода и климат >> Архив погоды >> Россия >> Московская область >> Луговая


ПОГОДА в Луговой

  • Прогноз погоды в Луговой
  • Монитор погоды в Луговой

АРХИВ ПОГОДЫ в Луговой

Время (UTC), дата Ветер
(напр.,м/с)
 
Видим.   Явления Облачность Т
(С)
Тd
(С)
f
(%)
Тe
(С)
Тes
(С)
Комфортность P
(гПа)
Po
(гПа)
Тmin
(С)
Tmax
(С)
R
(мм)
R24
(мм)
S
(см)
12 16.07 В 1 н/о н/о +18.5 +13.0 70 +20 +20 1010.3 985.4
15 16.07 З 2 н/о н/о +15.9 +15.7 99 +16 +16 1010.5 985.4 2
18 16.07 В 1 н/о н/о +14.4 +14.2 99 +15 +15 1009.9 984.6 +19.9 4
21 16.07 штиль 0 н/о н/о +14.0 +14.0 100 +13 +13 1009.6 984.4
00 17.07 штиль 0 н/о н/о +13.4 +13.4 100 +13 +13 1009.7 984.4
03 17.07 ЮВ 1 н/о н/о +14.0 +14.0 100 +14 +14 1009.4 984.2 +13.3 3
06 17.07 ЮЗ 1 н/о н/о +16.7 +15.4 92 +18 +18 1008.5 983.5 +13.3 0.8
09 17.07 штиль 0 н/о н/о +17.7 +15.4 86 +18 +18 1008.4 983.6
12 17.07 СЗ 2 н/о н/о +18.8 +15.0 79 +20 +20 1007.5 982.8
15 17.07 В 1 н/о н/о +15.3 +15.3 100 +16 +16 1007.0 982.0 4
18 17.07 штиль 0 н/о н/о +14.9 +14.9 100 +15 +15 1006.6 981.5 +19.3 4
21 17.07 В 1 н/о н/о +14.9 +14.9 100 +15 +15 1005.4 980.4
00 18.07 штиль 0 н/о н/о +14.6 +14.6 100 +14 +14 1004.2 979.1
03 18.07 ЮВ 1 н/о н/о +15.0 +15.0 100 +15 +15 1003.9 978.9 +14.6 1
06 18.07 Ю 1 н/о н/о +17.0 +15.2 89 +18 +18 1003.9 979.1 +14.6 1
09 18.07 Ю 2 н/о н/о +19.9 +12.8 64 +22 +22 комфорт 1004.2 979.6
12 18.07 ЮЗ 2 н/о н/о +19.8 +11.7 60 +22 +22 комфорт 1004.1 979.4
15 18.07 В 1 н/о н/о +19.5 +14.0 71 +22 +22 комфорт 1004.6 979.9
18 18.07 Ю 1 н/о н/о +17.1 +11.4 69 +18 +18 1004.9 980.0 +22.2
21 18.07 ЮВ 1 н/о н/о +13.5 +12.2 92 +14 +14 1005.6 980.4
00 19.07 штиль 0 н/о н/о +11.5 +11.5 100 +11 +11 1005.7 980.3
03 19.07 В 1 н/о н/о +12.3 +12.3 100 +12 +12 1004.8 979.5 +11.4 0.9
06 19.07 В 1 н/о н/о +13.0 +13.0 100 +13 +13 1004.2 979.0 +11.4 4
09 19.07 ЮВ 1 н/о н/о +15.1 +14.5 96 +16 +16 1004.6 979.6
12 19.07 З 2 н/о н/о +17.4 +13.2 76 +18 +18 1005.8 980.9
15 19.07 СЗ 1 н/о н/о +18.1 +14.0 77 +19 +19 1006.3 981.5 4
18 19.07 штиль 0 н/о н/о +14.3 +13.8 97 +14 +14 1007.5 982.3 +19.2 2
21 19.07 ЮЗ 1 н/о н/о +13.6 +13.6 100 +14 +14 1007.8 982.6
00 20.07 З 1 н/о н/о +13.6 +13.6 100 +14 +14 1008.3 983.0
03 20.07 З 1 н/о н/о +14.5 +14.5 100 +15 +15 1009.0 983.8 +13.3 2
06 20.07 З 1 н/о н/о +16.1 +14.5 90 +17 +17 1009.8 984.8 +13.3 0.8
09 20.07 З 3 н/о н/о +18.4 +12.8 70 +19 +19 1010.8 985.9
12 20.07 ЮЗ 2 н/о н/о +20.4 +13.8 66 +23 +23 комфорт 1011.1 986.4
15 20.07 штиль 0 н/о н/о +18.1 +15.2 83 +18 +18 1011.8 986.8
18 20.07 З 1 н/о н/о +16.8 +14.5 86 +18 +18 1013.2 988.1 +21.4
21 20.07 З 1 н/о н/о +15.9 +15.5 97 +17 +17 1013.8 988.6
00 21.07 З 2 н/о н/о +15.4 +15.0 97 +15 +15 1014.6 989.4
03 21.07 З 2 н/о н/о +15.3 +14.8 97 +15 +15 1015.1 989.8 +14.6
06 21.07 З 3 н/о н/о +17.1 +15.0 87 +17 +17 1015.9 990.8 +14.6
09 21.07 З 2 н/о н/о +18.5 +14.7 79 +20 +20 1016.5 991.5
12 21.07 СЗ 3 н/о н/о +21.5 +13.0 58 +24 +24 комфорт 1016.6 991.8
15 21.07 З 4 н/о н/о +22.0 +12.5 55 +25 +25 комфорт 1016.3 991.5
18 21.07 штиль 0 н/о н/о +16.7 +15.0 90 +17 +17 1017.2 992.0 +22.3
21 21.07 штиль 0 н/о н/о +13.5 +13.5 100 +13 +13 1018.0 992.5
00 22.07 штиль 0 н/о н/о +12.0 +12.0 100 +11 +11 1018.3 992.7
03 22.07 штиль 0 н/о н/о +14.3 +14.3 100 +14 +14 1018.1 992.6 +11.1
06 22.07 З 1 н/о н/о +20.5 +15.2 72 +24 +24 комфорт 1017.0 992.1 +11.1
09 22.07 З 2 н/о н/о +22.4 +12.7 54 +25 +25 комфорт 1015.8 991.1

 

Местоположение метеостанции Луговая (Московская область, Россия): широта 56.05 долгота 37.48 высота над уровнем моря 214 м.

В архиве по умолчанию представлена погода в Луговой за последнюю неделю. Архивные данные за месяц целиком и за предыдущие месяцы, начиная с января 2011 года, Вы можете получить, выбрав интересующий диапазон дат из раскрывающегося списка и нажав кнопку "Ввод!".


*Определитесь, кто Вы:
робот инопланетянин человек

Внимание! Время в таблицах - всемирное. Для получения местного времени необходимо прибавить поправку, которая равна 3 ч.

Смотрите также архив погоды в соседних городах и на ближайших метеорологических станциях:

Погода в Шереметьево (Московская область, Россия) (10 км)
Погода в Долгопрудном (Московская область, Россия) (14 км)
Погода в Москве (Тушино) (город Москва, Россия) (21 км)
Погода в Пушкино (Московская область, Россия) (23 км)
Погода в Москве (город Москва, Россия) (26 км)
Погода в Красногорске (Московская область, Россия) (28 км)
Погода в Москве (Строгино) (город Москва, Россия) (28 км)
Погода в Дмитрове (Московская область, Россия) (34 км)
Погода в Москве (Балчуг) (город Москва, Россия) (35 км)
Погода в Солнечногорске (Московская область, Россия) (39 км)

Пояснения к столбцам:

Ветер - указаны скорость ветра в м/с - средняя за 10 мин, порывы в срок и между сроками (в фигурных скобках) и направление, откуда дует ветер: С - северный, СВ - северо-восточный, В - восточный, ЮВ - юго-восточный, Ю - южный, ЮЗ - юго-западный, З - западный, СЗ - северо-западный.
Видимость - горизонтальная дальность видимости в метрах или километрах. При видимости от 1 до 10 км при отсутствии осадков обычно наблюдается дымка, при ухудшении видимости до 1 км и менее - туман. В сухую погоду видимость может ухудшаться дымом, пылью или мглою.
Явления - указаны атмосферные явления, наблюдавшиеся в срок или в последний час перед сроком; фигурными скобками обозначены явления, наблюдавшиеся между сроками (за 1-3 часа до срока); квадратными скобками обозначены град или гололедные отложения с указанием их диаметра в мм.
Облачность - указаны через наклонную черту общая и нижняя облачность в баллах и высота нижней границы облаков в метрах; квадратными скобками обозначены формы облаков: Ci - перистые, Cs - перисто-слоистые, Cc - перисто-кучевые, Ac - высококучевые, As - высокослоистые, Sc - слоисто-кучевые, Ns - слоисто-дождевые, Cu - кучевые, Cb - кучево-дождевые. Подробнее классификацию облаков см. в Атласе облаков (PDF).
T - Температура воздуха - температура, измеренная на высоте 2 м над землей.
Td - Температура точки росы - температура, при понижении до которой содержащийся в воздухе водяной пар достигнет насыщения.
f - Относительная влажность воздуха - влажноcть воздуха, измеренная на высоте 2 м над землей.
Te - Эффективная температура - температура, которую ощущает одетый по сезону человек в тени. Характеристика душности погоды. При расчете учитывается влияние влажности воздуха и скорости ветра на теплоощущения человека.
Tes - Эффективная температура на солнце - температура, которую ощущает человек, с поправкой на солнечный нагрев. Характеристика знойности погоды. Зависит от высоты солнца над горизонтом, облачности и скорости ветра. Ночью, в пасмурную погоду, а также при ветре 12 м/с и более поправка равна нулю.
P - Атмосферное давление - приведенное к уровню моря атмосферное давление.
Po - Атмосферное давление - измеренное на уровне метеостанции атмосферное давление.
Tmin - Минимальная температура - минимум температуры воздуха на высоте 2 м над землей.
Tmax - Максимальная температура - максимум температуры воздуха на высоте 2 м над землей.
R - Количество осадков - Количество выпавших осадков за период времени, мм. При наведении курсора мыши на число - период времени, за который выпало указанное количество осадков.
R24 - Количество осадков - Количество выпавших осадков за 24 часа, мм.
S - Снежный покров - Высота снежного покрова, см. При наведении курсора мыши на число - состояние снежного покрова и степень покрытия местности в баллах.